Regional Weather Roundup
Issued by NWS Sterling, VA

Home | Current Version | Previous Version | Text Only | Print | Product List | Glossary Off
Versions: 1 2 3 4 5 6 7 8 9 10 11 12 13 14 15 16 17 18 19 20 21 22 23 24 25 26 27

000
ASUS41 KLWX 262110
RWRLWX

REGIONAL WEATHER ROUNDUP
NATIONAL WEATHER SERVICE BALTIMORE MD/WASHINGTON DC
500 PM EDT TUE JUL 26 2016

Note: "FAIR" indicates few or no clouds below 12,000 feet
with no significant weather and/or obstructions to visibility.
 TC=TEMPERATURE CELSIUS

 * =Non NWS site. Station does not report precipitation (e.g. rain,
    snow, etc.), thunder, or fog.

DCZ001-MDZ009-015-VAZ040>042-051-053>054-262200-
WASHINGTON METRO

CITY           SKY/WX    TMP DP  RH WIND       PRES   REMARKS
WASHINGTON NAT PTSUNNY   93  70  46 N10       29.91F HX  99
DULLES         PTSUNNY   93  66  40 NW12      29.93F HX  96
ANDREWS AFB    MOSUNNY   92  69  46 NW12      29.91F HX  97
QUANTICO       PTSUNNY   95  69  42 CALM      29.91F HX 100
COLLEGE PARK*  FAIR      90  70  51 N9        29.91S HX  95
LEESBURG*      FAIR      90  72  55 NW7G20    29.94F HX  96
MANASSAS*      PTSUNNY   93  70  46 NW9       29.92F HX  99
GAITHERSBURG*  CLOUDY    88  70  55 NW5       29.97F HX  92

$$

MDZ006>007-011-014-262200-
BALTIMORE METRO

CITY           SKY/WX    TMP DP  RH WIND       PRES   REMARKS
BWI AIRPORT    CLOUDY    92  68  45 NW8       29.91F HX  96
MD SCIENCE CTR   N/A     93  67  42 MISG      29.90F HX  96
MARTIN STATE   MOSUNNY   91  77  62 CALM      29.92F HX 105
ANNAPOLIS      PTSUNNY   92  72  51 NW7       29.90F HX  99
FORT MEADE*    CLOUDY    82  72  69 W8        29.94S

$$

MDZ012-015-019>023-262200-
MARYLAND EASTERN SHORE

CITY           SKY/WX    TMP DP  RH WIND       PRES   REMARKS
OCEAN CITY     PTSUNNY   85  73  67 S6        29.92F HX  91
SALISBURY      MOSUNNY   86  74  67 S7        29.91F HX  94
BAY BRIDGE AP* PTSUNNY   90  75  62 NW3       29.91S HX 100
CAMBRIDGE*     SUNNY     90  70  51 CALM      29.90F HX  95
EASTON*        PTSUNNY   93  77  59 NW7       29.95S HX 107

$$

MDZ017>025-262200-
SOUTHERN MARYLAND

CITY           SKY/WX    TMP DP  RH WIND       PRES   REMARKS
PATUXENT RIVER PTSUNNY   89  74  60 CALM      29.91F HX  98
ST INIGOES     CLOUDY    89  74  60 SE5       29.90F HX  98
LEONARDTOWN*     N/A    N/A N/A N/A MISG        N/A

$$

MDZ003>005-262200-
NORTH CENTRAL MARYLAND

CITY           SKY/WX    TMP DP  RH WIND       PRES   REMARKS
FREDERICK*     SUNNY     91  70  49 W6        29.95F HX  97
HAGERSTOWN APT MOSUNNY   91  67  44 SW8       29.93F HX  94

$$

MDZ501>502-262200-
WESTERN MARYLAND

CITY           SKY/WX    TMP DP  RH WIND       PRES   REMARKS
OAKLAND*       MOSUNNY   75  64  69 W3        30.11F
CUMBERLAND*    MOSUNNY   91  59  33 NW5       29.99F HX  90

$$

VAZ025>031-262200-
SHENANDOAH VALLEY

CITY           SKY/WX    TMP DP  RH WIND       PRES   REMARKS
WINCHESTER*    FAIR      86  70  58 NW6       29.96S HX  90
FRONT ROYAL*   MOCLDY    91  72  52 N9        29.94S HX  98
LURAY*         FAIR      90  70  51 N6        29.95S HX  95
NEW MARKET*    FAIR     N/A N/A N/A N5        29.93S
STAUNTON*      CLOUDY    77  72  84 N8        30.01S
WAYNESBORO*    CLOUDY    82  69  64 NE5       30.02S

$$

WVZ021-048>050-054>055-262200-
EASTERN WEST VIRGINIA PANHANDLE

CITY           SKY/WX    TMP DP  RH WIND       PRES   REMARKS
MARTINSBURG    FAIR      91  65  41 W8        29.93F HX  93
PETERSBURG*    PTSUNNY   87  69  55 NW8       29.98S HX  91

$$

VAZ036>039-050-262200-
CENTRAL FOOTHILLS

CITY           SKY/WX    TMP DP  RH WIND       PRES   REMARKS
CHARLOTTESVILL FAIR      92  72  51 N9        29.93S HX  99
CULPEPER*      FAIR      93  76  58 CALM      29.93S HX 105
ORANGE*          N/A     91  72  52 CALM      29.94F HX  98
GORDONSVILLE*  MOCLDY    92  76  59 S5        29.92S HX 104
WARRENTON*     FAIR      95  64  35 NE5       29.92S HX  97

$$

VAZ055>057-262200-
NORTH AND CENTRAL PIEDMONT

CITY           SKY/WX    TMP DP  RH WIND       PRES   REMARKS
FREDERICKSBRG*   N/A     94  76  54 E6        29.90S HX 106
STAFFORD*      FAIR      95  66  38 CALM      29.95S HX  98

$$

NCZ024-NYZ072-PAZ021-071-VAZ022-071-262200-
OTHER REGIONAL OBSERVATIONS

CITY           SKY/WX    TMP DP  RH WIND       PRES   REMARKS
NEW YORK CITY  MOSUNNY   89  62  40 W9G17     29.89S
PHILADELPHIA   CLOUDY    91  66  43 W10       29.89F HX  93
PITTSBURGH     PTSUNNY   86  60  41 VRB7      30.01S
ROANOKE        FAIR      96  68  39 W5        29.98F HX 101
RICHMOND       PTSUNNY   94  74  52 E5        29.90F HX 104
RALEIGH        MOSUNNY   96  73  47 W9        29.93F HX 105

$$

ANZ530>537-262200-
MARINE OBSERVATIONS

STATION/POSITION TIME  TEMP    WIND        PRES
                       AIR SEA DIR/SP/G
                 (UTC) (F)     (DEG/KT/KT) (MB)
THOMAS PT LIGHT  2100   87 85  200/  3/  4 1014.1F
BALT KEY BRIDGE  2042   89     240/  8/  9 1012.5F
COVE POINT       2042   87     220/  6/  7 1013.3F
LEWISETTA        2042   88 87  150/  9/ 10 1012.6F
SOLOMONS ISLAND  2042   85 85  180/  2/  5   N/A
PINEY POINT      2048          130/  7/  7   N/A

$$





USA.gov is the U.S. government's official web portal to all federal, state and local government web resources and services.